Latest Coastal Weather Observations for Coconut Island

IDQ60701

Issued at 6:51 am EST Thursday 14 December 2017 (issued every 10 minutes, with the page automatically refreshed every 10 minutes)

About coastal observations | Map of coastal stations | Coastal observations for QLD | Marine services | Other Formats
Station Details ID: 027054 Name: COCONUT ISLAND Lat: -10.05 Lon: 143.07 Height: 3.5 m
Data from the previous 72 hours. | See also: Recent months at Coconut Island
Date/Time
EST
Temp
°C
Wind Pressure Rain since
9am
mm
Weather Cloud Vis
km
Sea
Height
m
Swell
Dir  Spd
kts
Gust
kts
hPa Trend Height
m
Period
s
Dir
14/06:30am 25.6 SSE 2 3 1008.2 - 0.0 - - - - - - -
14/06:00am 25.2 SE 1 3 1008.0 - 0.0 - - - - - - -
14/05:30am 25.3 SSE 1 3 1007.4 - 0.0 - - - - - - -
14/05:00am 25.4 SSE 1 2 1007.1 - 0.0 - - - - - - -
14/04:30am 25.6 SE 2 5 1006.9 - 0.0 - - - - - - -
14/04:00am 25.6 SE 2 4 1006.4 - 0.0 - - - - - - -
14/03:30am 25.7 ESE 3 6 1006.5 - 0.0 - - - - - - -
14/03:00am 25.8 ESE 3 6 1006.7 - 0.0 - - - - - - -
14/02:30am 26.0 ESE 3 7 1006.8 - 0.0 - - - - - - -
14/02:00am 26.2 ESE 4 7 1007.1 - 0.0 - - - - - - -
14/01:30am 26.5 E 4 7 1007.3 - 0.0 - - - - - - -
14/01:00am 26.6 SE 3 6 1007.5 - 0.0 - - - - - - -
14/12:30am 26.6 SE 2 5 1007.9 - 0.0 - - - - - - -
14/12:00am 26.9 SE 2 5 1008.4 - 0.0 - - - - - - -
 
Date/Time
EST
Temp
°C
Wind Pressure Rain since
9am
mm
Weather Cloud Vis
km
Sea
Height
m
Swell
Dir  Spd
kts
Gust
kts
hPa Trend Height
m
Period
s
Dir
13/11:30pm 27.3 SE 2 5 1008.8 - 0.0 - - - - - - -
13/11:00pm 27.3 ESE 3 8 1008.9 - 0.0 - - - - - - -
13/10:30pm 27.3 ESE 3 9 1008.9 - 0.0 - - - - - - -
13/10:00pm 27.3 ESE 3 6 1008.8 - 0.0 - - - - - - -
13/09:30pm 27.4 ESE 4 7 1008.8 - 0.0 - - - - - - -
13/09:00pm 27.4 SE 2 5 1008.5 - 0.0 - - - - - - -
13/08:30pm 27.6 SE 2 5 1008.2 - 0.0 - - - - - - -
13/08:00pm 27.6 SE 3 6 1008.3 - 0.0 - - - - - - -
13/07:30pm 27.8 ESE 2 7 1008.2 - 0.0 - - - - - - -
13/07:00pm 27.9 SE 3 6 1008.0 - 0.0 - - - - - - -
13/06:30pm 28.4 SE 2 5 1007.8 - 0.0 - - - - - - -
13/06:00pm 29.2 SE 2 5 1007.5 - 0.0 - - - - - - -
13/05:30pm 30.2 SE 2 6 1007.3 - 0.0 - - - - - - -
13/05:00pm 30.0 ESE 3 6 1007.2 - 0.0 - - - - - - -
13/04:30pm 30.9 SE 2 7 1007.1 - 0.0 - - - - - - -
13/04:00pm 31.4 ESE 2 4 1007.0 - 0.0 - - - - - - -
13/03:30pm 32.0 SE 2 5 1006.9 - 0.0 - - - - - - -
13/03:00pm 32.0 SE 3 6 1007.0 - 0.0 - - - - - - -
13/02:30pm 33.5 SE 2 6 1007.2 - 0.0 - - - - - - -
13/02:00pm 33.2 SE 3 6 1007.5 - 0.0 - - - - - - -
13/01:30pm 33.6 SE 1 4 1007.9 - 0.0 - - - - - - -
13/01:00pm 32.3 SE 2 4 1008.1 - 0.0 - - - - - - -
13/12:30pm 33.6 SE 3 5 1008.4 - 0.0 - - - - - - -
13/12:00pm 33.1 SE 2 4 1008.7 - 0.0 - - - - - - -
13/11:30am 32.1 SE 3 6 1008.9 - 0.0 - - - - - - -
13/11:00am 31.5 SE 3 7 1009.5 - 0.0 - - - - - - -
13/10:30am 31.3 SE 2 4 1009.6 - 0.0 - - - - - - -
13/10:00am 31.5 SE 2 4 1009.7 - 0.0 - - - - - - -
13/09:30am 30.4 ESE 3 5 1009.9 - 0.0 - - - - - - -
13/09:00am 30.4 SE 2 5 1009.8 - 0.0 - - - - - - -
13/08:30am 29.7 SE 3 6 1009.8 - 0.0 - - - - - - -
13/08:00am 28.1 SE 3 5 1009.2 - 0.0 - - - - - - -
13/07:30am 27.6 ESE 3 6 1009.3 - 0.0 - - - - - - -
13/07:00am 27.1 ESE 4 8 1009.3 - 0.0 - - - - - - -
13/06:30am 26.1 ESE 3 7 1008.9 - 0.0 - - - - - - -
13/06:00am 25.6 ESE 3 5 1008.6 - 0.0 - - - - - - -
13/05:30am 25.5 SE 2 6 1008.3 - 0.0 - - - - - - -
13/05:00am 25.6 SE 2 4 1008.2 - 0.0 - - - - - - -
13/04:30am 25.6 SE 2 4 1007.8 - 0.0 - - - - - - -
13/04:00am 25.9 SE 2 5 1007.5 - 0.0 - - - - - - -
13/03:30am 26.1 SE 2 5 1007.3 - 0.0 - - - - - - -
13/03:00am 26.3 SE 3 8 1007.5 - 0.0 - - - - - - -
13/02:30am 26.4 ESE 3 8 1007.6 - 0.0 - - - - - - -
13/02:00am 26.6 ESE 3 7 1007.5 - 0.0 - - - - - - -
13/01:30am 26.8 ESE 4 8 1007.6 - 0.0 - - - - - - -
13/01:00am 27.0 ESE 5 11 1008.0 - 0.0 - - - - - - -
13/12:30am 27.1 E 6 10 1008.0 - 0.0 - - - - - - -
13/12:00am 27.2 E 5 9 1008.4 - 0.0 - - - - - - -
 
Date/Time
EST
Temp
°C
Wind Pressure Rain since
9am
mm
Weather Cloud Vis
km
Sea
Height
m
Swell
Dir  Spd
kts
Gust
kts
hPa Trend Height
m
Period
s
Dir
12/11:30pm 27.1 ESE 4 8 1008.8 - 0.0 - - - - - - -
12/11:00pm 27.4 ESE 5 10 1009.1 - 0.0 - - - - - - -
12/10:30pm 27.5 ESE 5 10 1009.2 - 0.0 - - - - - - -
12/10:00pm 27.4 SE 3 7 1009.3 - 0.0 - - - - - - -
12/09:30pm 27.5 SE 4 9 1009.3 - 0.0 - - - - - - -
12/09:00pm 27.6 SE 4 9 1009.3 - 0.0 - - - - - - -
12/08:30pm 27.8 SE 4 8 1009.2 - 0.0 - - - - - - -
12/08:00pm 27.9 SE 3 5 1008.8 - 0.0 - - - - - - -
12/07:30pm 28.1 SE 3 7 1008.5 - 0.0 - - - - - - -
12/07:00pm 28.3 SE 3 7 1008.2 - 0.0 - - - - - - -
12/06:30pm 28.7 SE 3 8 1008.0 - 0.0 - - - - - - -
12/06:00pm 29.6 SE 3 8 1007.7 - 0.0 - - - - - - -
12/05:30pm 29.9 SSE 3 5 1007.1 - 0.0 - - - - - - -
12/05:00pm 30.3 SSE 3 5 1007.0 - 0.0 - - - - - - -
12/04:30pm 31.2 SSE 4 7 1006.7 - 0.0 - - - - - - -
12/04:00pm 31.8 SSE 3 5 1006.6 - 0.0 - - - - - - -
12/03:30pm 32.5 SE 3 7 1006.7 - 0.0 - - - - - - -
12/03:00pm 33.5 SSE 3 5 1007.0 - 0.0 - - - - - - -
12/02:30pm 33.3 SSE 3 7 1007.3 - 0.0 - - - - - - -
12/02:00pm 33.2 SSE 3 5 1007.8 - 0.0 - - - - - - -
12/01:30pm 33.9 SSE 3 5 1008.3 - 0.0 - - - - - - -
12/01:00pm 33.7 SSE 3 5 1008.6 - 0.0 - - - - - - -
12/12:30pm 34.0 SSE 3 6 1009.1 - 0.0 - - - - - - -
12/12:00pm 33.6 SSE 3 6 1009.4 - 0.0 - - - - - - -
12/11:30am 32.8 SSE 3 5 1009.8 - 0.0 - - - - - - -
12/11:00am 33.6 SSE 3 5 1010.2 - 0.0 - - - - - - -
12/10:30am 33.0 SSE 3 5 1010.6 - 0.0 - - - - - - -
12/10:00am 31.5 SSE 2 5 1010.9 - 0.0 - - - - - - -
12/09:30am 31.7 SSE 3 4 1011.2 - 0.0 - - - - - - -
12/09:00am 29.7 SSE 2 3 1011.2 - 2.0 - - - - - - -
12/08:30am 29.0 SSE 2 4 1011.1 - 2.0 - - - - - - -
12/08:00am 28.2 SSE 3 5 1010.9 - 2.0 - - - - - - -
12/07:30am 28.0 SSE 3 5 1010.4 - 2.0 - - - - - - -
12/07:00am 27.3 SSE 3 4 1010.0 - 2.0 - - - - - - -
12/06:30am 27.2 SSE 3 5 1009.6 - 2.0 - - - - - - -
12/06:00am 26.9 SSE 3 5 1009.0 - 2.0 - - - - - - -
12/05:30am 26.9 SSE 3 5 1008.5 - 2.0 - - - - - - -
12/05:00am 26.8 SSE 3 4 1008.1 - 2.0 - - - - - - -
12/04:30am 26.8 SSE 2 4 1008.0 - 2.0 - - - - - - -
12/04:00am 26.9 SSE 2 4 1008.0 - 2.0 - - - - - - -
12/03:30am 27.0 SSE 2 3 1007.9 - 2.0 - - - - - - -
12/03:00am 27.1 SSE 2 4 1007.7 - 2.0 - - - - - - -
12/02:30am 27.0 SSE 3 4 1007.8 - 2.0 - - - - - - -
12/02:00am 27.1 SSE 3 4 1008.0 - 2.0 - - - - - - -
12/01:30am 27.2 SSE 2 4 1008.4 - 2.0 - - - - - - -
12/01:00am 27.3 SSE 2 4 1008.5 - 2.0 - - - - - - -
12/12:30am 27.4 SSE 3 5 1008.6 - 2.0 - - - - - - -
12/12:00am 27.6 SSE 4 7 1009.1 - 2.0 - - - - - - -
 
Date/Time
EST
Temp
°C
Wind Pressure Rain since
9am
mm
Weather Cloud Vis
km
Sea
Height
m
Swell
Dir  Spd
kts
Gust
kts
hPa Trend Height
m
Period
s
Dir
11/11:30pm 27.8 SSE 4 7 1009.2 - 2.0 - - - - - - -
11/11:00pm 27.8 SSE 4 6 1009.2 - 2.0 - - - - - - -
11/10:30pm 27.8 SSE 4 5 1009.2 - 2.0 - - - - - - -
11/10:00pm 27.9 SSE 4 5 1008.9 - 2.0 - - - - - - -
11/09:30pm 28.1 SSE 4 6 1008.9 - 2.0 - - - - - - -
11/09:00pm 28.0 SSE 4 7 1008.8 - 2.0 - - - - - - -
11/08:30pm 28.3 SSE 4 6 1008.7 - 2.0 - - - - - - -
11/08:00pm 28.2 SSE 5 7 1008.2 - 2.0 - - - - - - -
11/07:30pm 27.8 SE 2 5 1007.9 - 2.0 - - - - - - -
11/07:00pm 27.9 SSE 2 4 1007.5 - 2.0 - - - - - - -
11/06:30pm 28.1 SE 2 5 1007.2 - 2.0 - - - - - - -
11/06:00pm 28.7 SSE 2 3 1007.2 - 2.0 - - - - - - -
11/05:30pm 28.9 SSE 1 4 1007.0 - 2.0 - - - - - - -
11/05:00pm 28.9 SSE 1 3 1006.7 - 2.0 - - - - - - -
11/04:30pm 29.1 SE 2 6 1006.8 - 2.0 - - - - - - -
11/04:00pm 29.5 CALM 0 2 1006.5 - 2.0 - - - - - - -
11/03:30pm 29.3 CALM 0 0 1006.6 - 2.0 - - - - - - -
11/03:00pm 28.8 SE 1 4 1007.1 - 2.0 Recent precip. - - - - - -
11/02:30pm 27.8 ENE 3 7 1007.5 - 2.0 - - - - - - -
11/02:00pm 30.2 NE 6 8 1007.8 - 0.2 - - - - - - -
11/01:30pm 30.3 NE 7 9 1008.3 - 0.2 - - - - - - -
11/01:00pm 30.2 ENE 7 9 1008.9 - 0.2 - - - - - - -
11/12:30pm 30.4 ENE 7 10 1009.1 - 0.2 - - - - - - -
11/12:00pm 29.5 ENE 7 12 1009.3 - 0.2 - - - - - - -
11/11:30am 31.5 ESE 3 6 1009.7 - 0.2 - - - - - - -
11/11:00am 32.8 ESE 3 7 1010.1 - 0.2 - - - - - - -
11/10:30am 32.5 SE 3 6 1010.5 - 0.2 - - - - - - -
11/10:00am 31.9 SE 1 3 1010.7 - 0.0 - - - - - - -
11/09:30am 31.0 SE 1 2 1010.7 - 0.0 - - - - - - -
11/09:00am 30.2 SSE 1 3 1010.7 - 0.2 - - - - - - -
11/08:30am 29.7 SE 1 3 1010.6 - 0.2 - - - - - - -
11/08:00am 29.0 SE 2 4 1010.3 - 0.2 - - - - - - -
11/07:30am 27.8 SSE 3 4 1009.9 - 0.2 - - - - - - -
11/07:00am 27.1 SSE 2 4 1009.5 - 0.2 - - - - - - -

Other Formats:

Comma delimited format used in spreadsheet applications
http://www.bom.gov.au/fwo/IDQ60701/IDQ60701.94182.axf

JavaScript Object Notation format (JSON) in row-major order
http://www.bom.gov.au/fwo/IDQ60701/IDQ60701.94182.json